[Date Prev][Date Next][Thread Prev][Thread Next] - [Date Index][Thread Index][Author Index]

2 Line ISS Keps 4-19



ISS
1 25544U 98067A   02109.19130226  .00064474  00000-0  84571-3 0  3274
2 25544  51.6394 349.3239 0007529 353.9357 150.9169 15.57905033194824


----
Via the sarex mailing list at AMSAT.ORG courtesy of AMSAT-NA.
To unsubscribe, send "unsubscribe sarex" to Majordomo@amsat.org



AMSAT Top AMSAT Home